Location: Byhalia Creek
(34.8270°N, 89.8040°W)
Time: 08:27:46
(UTC+00:00)

ADEOS II - Pass Details

Date: 22 April 2026
Orbit: 793 x 795 km, 98.8° (Epoch: 15 May)

Event Time Altitude Azimuth Distance (km) Brightness Sun altitude
Rises 08:51:32 0° 15° (NNE) 3,299 6.1 -27.5°
Reaches altitude 10° 08:53:52 10° 16° (NNE) 2,366 5.2 -27.1°
Maximum altitude 08:59:06 76° 102° (ESE) 818 2.1 -26.3°
Enters shadow 08:59:46 66° 160° (SSE) 865 2.1 -26.2°
